Time,TemperatureF,DewpointF,PressureIn,WindDirection,WindDirectionDegrees,WindSpeedMPH,WindSpeedGustMPH,Humidity,HourlyPrecipIn,Conditions,Clouds,dailyrainin,SoftwareType,DateUTC
2013-01-15 00:03:00,35.0,28.0,30.20,West,275,0.0,3.0,76,0.00,,,0.00,,2013-01-15 05:03:00,
2013-01-15 00:12:00,34.0,27.0,30.19,WSW,251,0.0,3.0,76,0.00,,,0.00,,2013-01-15 05:12:00,
2013-01-15 00:22:00,34.0,27.0,30.19,WSW,251,0.0,3.0,76,0.00,,,0.00,,2013-01-15 05:22:00,
2013-01-15 00:33:00,34.0,27.0,30.19,NNW,328,0.0,1.0,76,0.00,,,0.00,,2013-01-15 05:33:00,
2013-01-15 00:42:00,34.0,27.0,30.19,NNW,328,0.0,1.0,76,0.00,,,0.00,,2013-01-15 05:42:00,
2013-01-15 00:53:00,34.0,27.0,30.19,West,269,2.0,5.0,75,0.00,,,0.00,,2013-01-15 05:53:00,
2013-01-15 01:02:00,34.0,27.0,30.19,West,265,0.0,5.0,75,0.00,,,0.00,,2013-01-15 06:02:00,
2013-01-15 01:12:00,34.0,27.0,30.19,West,265,0.0,5.0,75,0.00,,,0.00,,2013-01-15 06:12:00,
2013-01-15 01:22:00,34.0,27.0,30.20,NNW,331,0.0,5.0,76,0.00,,,0.00,,2013-01-15 06:22:00,
2013-01-15 01:33:00,34.0,27.0,30.21,NW,306,0.0,5.0,76,0.00,,,0.00,,2013-01-15 06:33:00,
2013-01-15 01:43:00,34.0,27.0,30.21,NW,306,0.0,5.0,76,0.00,,,0.00,,2013-01-15 06:43:00,
2013-01-15 01:53:00,34.0,27.0,30.22,WSW,246,3.0,6.0,75,0.00,,,0.00,,2013-01-15 06:53:00,
2013-01-15 02:02:00,34.0,27.0,30.22,WSW,246,3.0,6.0,75,0.00,,,0.00,,2013-01-15 07:02:00,
2013-01-15 02:12:00,34.0,27.0,30.22,WSW,246,3.0,6.0,75,0.00,,,0.00,,2013-01-15 07:12:00,
2013-01-15 02:22:00,34.0,27.0,30.20,North,355,2.0,8.0,75,0.00,,,0.00,,2013-01-15 07:22:00,
2013-01-15 02:33:00,34.0,27.0,30.19,WNW,285,0.0,3.0,75,0.00,,,0.00,,2013-01-15 07:33:00,
2013-01-15 02:43:00,34.0,27.0,30.19,WNW,285,0.0,3.0,75,0.00,,,0.00,,2013-01-15 07:43:00,
2013-01-15 02:53:00,33.0,27.0,30.18,NW,311,0.0,3.0,78,0.00,,,0.00,,2013-01-15 07:53:00,
2013-01-15 03:02:00,33.0,27.0,30.18,WNW,298,0.0,3.0,79,0.00,,,0.00,,2013-01-15 08:02:00,
2013-01-15 03:12:00,33.0,27.0,30.18,WNW,298,0.0,3.0,79,0.00,,,0.00,,2013-01-15 08:12:00,
2013-01-15 03:22:00,33.0,27.0,30.18,WNW,298,0.0,3.0,79,0.00,,,0.00,,2013-01-15 08:22:00,
2013-01-15 03:33:00,33.0,27.0,30.19,WNW,298,0.0,1.0,79,0.00,,,0.00,,2013-01-15 08:33:00,
2013-01-15 03:42:00,33.0,27.0,30.19,WNW,298,0.0,1.0,79,0.00,,,0.00,,2013-01-15 08:42:00,
2013-01-15 03:53:00,33.0,27.0,30.18,NW,304,0.0,1.0,78,0.00,,,0.00,,2013-01-15 08:53:00,
2013-01-15 04:02:00,33.0,27.0,30.17,WNW,287,0.0,1.0,78,0.00,,,0.00,,2013-01-15 09:02:00,
2013-01-15 04:12:00,33.0,27.0,30.17,WNW,287,0.0,1.0,78,0.00,,,0.00,,2013-01-15 09:12:00,
2013-01-15 04:22:00,33.0,27.0,30.16,NNW,328,0.0,1.0,78,0.00,,,0.00,,2013-01-15 09:22:00,
2013-01-15 04:33:00,33.0,27.0,30.16,NNW,328,0.0,2.0,79,0.00,,,0.00,,2013-01-15 09:33:00,
2013-01-15 04:42:00,33.0,27.0,30.16,NNW,328,0.0,2.0,79,0.00,,,0.00,,2013-01-15 09:42:00,
2013-01-15 04:52:00,33.0,27.0,30.16,NW,313,0.0,2.0,79,0.00,,,0.00,,2013-01-15 09:52:00,
2013-01-15 05:02:00,33.0,27.0,30.16,NW,305,0.0,3.0,79,0.00,,,0.00,,2013-01-15 10:02:00,
2013-01-15 05:12:00,33.0,27.0,30.16,NW,305,0.0,3.0,79,0.00,,,0.00,,2013-01-15 10:12:00,
2013-01-15 05:22:00,32.0,26.0,30.17,NW,315,0.0,3.0,79,0.00,,,0.00,,2013-01-15 10:22:00,
2013-01-15 05:32:00,32.0,26.0,30.17,NW,315,0.0,0.0,79,0.00,,,0.00,,2013-01-15 10:32:00,
2013-01-15 05:42:00,32.0,26.0,30.17,NW,315,0.0,0.0,79,0.00,,,0.00,,2013-01-15 10:42:00,
2013-01-15 05:52:00,31.0,26.0,30.16,NW,315,0.0,0.0,80,0.00,,,0.00,,2013-01-15 10:52:00,
2013-01-15 06:02:00,31.0,26.0,30.15,NW,315,0.0,0.0,80,0.00,,,0.00,,2013-01-15 11:02:00,
2013-01-15 06:12:00,31.0,26.0,30.15,NW,315,0.0,0.0,80,0.00,,,0.00,,2013-01-15 11:12:00,
2013-01-15 06:22:00,30.0,25.0,30.19,NW,315,0.0,0.0,82,0.00,,,0.00,,2013-01-15 11:22:00,
2013-01-15 06:33:00,30.0,25.0,30.20,NW,315,0.0,1.0,82,0.00,,,0.00,,2013-01-15 11:33:00,
2013-01-15 06:42:00,30.0,25.0,30.20,NW,315,0.0,1.0,82,0.00,,,0.00,,2013-01-15 11:42:00,
2013-01-15 06:53:00,30.0,26.0,30.21,NW,317,0.0,2.0,84,0.00,,,0.00,,2013-01-15 11:53:00,
2013-01-15 07:03:00,30.0,26.0,30.20,NW,310,0.0,2.0,84,0.00,,,0.00,,2013-01-15 12:03:00,
2013-01-15 07:12:00,30.0,26.0,30.20,NW,310,0.0,2.0,84,0.00,,,0.00,,2013-01-15 12:12:00,
2013-01-15 07:22:00,29.0,25.0,30.22,NW,310,0.0,2.0,84,0.00,,,0.00,,2013-01-15 12:22:00,
2013-01-15 07:33:00,29.0,25.0,30.22,NW,310,0.0,0.0,84,0.00,,,0.00,,2013-01-15 12:33:00,
2013-01-15 07:43:00,29.0,25.0,30.22,NW,310,0.0,0.0,84,0.00,,,0.00,,2013-01-15 12:43:00,
2013-01-15 07:53:00,28.0,24.0,30.24,NW,310,0.0,0.0,85,0.00,,,0.00,,2013-01-15 12:53:00,
2013-01-15 08:03:00,28.0,24.0,30.24,NW,310,0.0,0.0,85,0.00,,,0.00,,2013-01-15 13:03:00,
2013-01-15 08:12:00,28.0,24.0,30.24,NW,310,0.0,0.0,85,0.00,,,0.00,,2013-01-15 13:12:00,
2013-01-15 08:23:00,28.0,24.0,30.24,NW,313,0.0,1.0,86,0.00,,,0.00,,2013-01-15 13:23:00,
2013-01-15 08:33:00,28.0,24.0,30.24,NW,323,0.0,2.0,86,0.00,,,0.00,,2013-01-15 13:33:00,
2013-01-15 08:43:00,28.0,24.0,30.24,NW,323,0.0,2.0,86,0.00,,,0.00,,2013-01-15 13:43:00,
2013-01-15 08:53:00,30.0,26.0,30.24,NW,306,2.0,4.0,84,0.00,,,0.00,,2013-01-15 13:53:00,
2013-01-15 09:03:00,31.0,26.0,30.24,NNW,328,2.0,5.0,82,0.00,,,0.00,,2013-01-15 14:03:00,
2013-01-15 09:12:00,31.0,26.0,30.24,NNW,328,2.0,5.0,82,0.00,,,0.00,,2013-01-15 14:12:00,
2013-01-15 09:23:00,33.0,27.0,30.25,NW,324,3.0,7.0,77,0.00,,,0.00,,2013-01-15 14:23:00,
2013-01-15 09:33:00,34.0,27.0,30.25,NW,325,1.0,3.0,75,0.00,,,0.00,,2013-01-15 14:33:00,
2013-01-15 09:43:00,34.0,27.0,30.25,NW,325,1.0,3.0,75,0.00,,,0.00,,2013-01-15 14:43:00,
2013-01-15 09:54:00,35.0,27.0,30.26,NNW,329,2.0,5.0,72,0.00,,,0.00,,2013-01-15 14:54:00,
2013-01-15 10:03:00,36.0,27.0,30.26,North,355,1.0,5.0,70,0.00,,,0.00,,2013-01-15 15:03:00,
2013-01-15 10:12:00,36.0,27.0,30.26,North,355,1.0,5.0,70,0.00,,,0.00,,2013-01-15 15:12:00,
2013-01-15 10:23:00,37.0,27.0,30.27,NW,308,0.0,5.0,68,0.00,,,0.00,,2013-01-15 15:23:00,
2013-01-15 10:33:00,36.0,26.0,30.27,North,360,2.0,5.0,66,0.00,,,0.00,,2013-01-15 15:33:00,
2013-01-15 10:43:00,36.0,26.0,30.27,North,360,2.0,5.0,66,0.00,,,0.00,,2013-01-15 15:43:00,
2013-01-15 10:53:00,36.0,26.0,30.26,NW,315,0.0,5.0,67,0.00,,,0.00,,2013-01-15 15:53:00,
2013-01-15 11:03:00,36.0,26.0,30.24,NNW,333,3.0,5.0,66,0.00,,,0.00,,2013-01-15 16:03:00,
2013-01-15 11:12:00,36.0,26.0,30.24,NNW,333,3.0,5.0,66,0.00,,,0.00,,2013-01-15 16:12:00,
2013-01-15 11:23:00,36.0,26.0,30.23,WNW,291,0.0,5.0,67,0.00,,,0.00,,2013-01-15 16:23:00,
2013-01-15 11:33:00,36.0,26.0,30.23,North,5,0.0,4.0,66,0.00,,,0.00,,2013-01-15 16:33:00,
2013-01-15 11:43:00,36.0,26.0,30.23,North,5,0.0,4.0,66,0.00,,,0.00,,2013-01-15 16:43:00,
2013-01-15 11:53:00,37.0,27.0,30.23,NNW,327,0.0,5.0,66,0.00,,,0.00,,2013-01-15 16:53:00,
2013-01-15 12:03:00,37.0,26.0,30.22,SW,227,1.0,5.0,64,0.00,,,0.00,,2013-01-15 17:03:00,
2013-01-15 12:12:00,37.0,26.0,30.22,SW,227,1.0,5.0,64,0.00,,,0.00,,2013-01-15 17:12:00,
2013-01-15 12:23:00,38.0,28.0,30.22,NNW,337,0.0,5.0,67,0.00,,,0.00,,2013-01-15 17:23:00,
2013-01-15 12:33:00,38.0,28.0,30.22,NNW,331,3.0,5.0,66,0.00,,,0.00,,2013-01-15 17:33:00,
2013-01-15 12:43:00,38.0,28.0,30.22,NNW,331,3.0,5.0,66,0.00,,,0.00,,2013-01-15 17:43:00,
2013-01-15 12:53:00,37.0,27.0,30.21,WSW,237,1.0,5.0,66,0.00,,,0.00,,2013-01-15 17:53:00,
2013-01-15 13:03:00,37.0,27.0,30.21,WSW,248,1.0,5.0,66,0.00,,,0.00,,2013-01-15 18:03:00,
2013-01-15 13:13:00,37.0,27.0,30.21,WSW,248,1.0,5.0,66,0.00,,,0.00,,2013-01-15 18:13:00,
2013-01-15 13:23:00,37.0,26.0,30.22,NW,310,0.0,5.0,65,0.00,,,0.00,,2013-01-15 18:23:00,
2013-01-15 13:33:00,37.0,26.0,30.21,NNW,337,2.0,2.0,65,0.00,,,0.00,,2013-01-15 18:33:00,
2013-01-15 13:43:00,37.0,26.0,30.21,NNW,337,2.0,2.0,65,0.00,,,0.00,,2013-01-15 18:43:00,
2013-01-15 13:54:00,37.0,27.0,30.22,WSW,257,0.0,6.0,67,0.00,,,0.00,,2013-01-15 18:54:00,
2013-01-15 14:03:00,37.0,27.0,30.21,WNW,296,0.0,6.0,66,0.00,,,0.00,,2013-01-15 19:03:00,
2013-01-15 14:13:00,37.0,27.0,30.21,WNW,296,0.0,6.0,66,0.00,,,0.00,,2013-01-15 19:13:00,
2013-01-15 14:23:00,37.0,27.0,30.21,SW,234,0.0,6.0,66,0.00,,,0.00,,2013-01-15 19:23:00,
2013-01-15 14:33:00,37.0,26.0,30.21,NNW,344,1.0,4.0,64,0.00,,,0.00,,2013-01-15 19:33:00,
2013-01-15 14:42:00,37.0,26.0,30.21,NNW,344,1.0,4.0,64,0.00,,,0.00,,2013-01-15 19:42:00,
2013-01-15 14:53:00,37.0,26.0,30.20,NW,314,0.0,4.0,65,0.00,,,0.00,,2013-01-15 19:53:00,
2013-01-15 15:03:00,37.0,27.0,30.21,NW,321,0.0,4.0,66,0.00,,,0.00,,2013-01-15 20:03:00,
2013-01-15 15:12:00,37.0,27.0,30.21,NW,321,0.0,4.0,66,0.00,,,0.00,,2013-01-15 20:12:00,
2013-01-15 15:23:00,36.0,26.0,30.20,North,5,0.0,4.0,67,0.00,,,0.00,,2013-01-15 20:23:00,
2013-01-15 15:33:00,36.0,26.0,30.19,WSW,244,0.0,1.0,67,0.00,,,0.00,,2013-01-15 20:33:00,
2013-01-15 15:43:00,36.0,26.0,30.19,WSW,244,0.0,1.0,67,0.00,,,0.00,,2013-01-15 20:43:00,
2013-01-15 15:53:00,36.0,25.0,30.19,NNW,327,0.0,1.0,65,0.00,,,0.00,,2013-01-15 20:53:00,
2013-01-15 16:03:00,36.0,26.0,30.20,NW,323,0.0,2.0,66,0.00,,,0.00,,2013-01-15 21:03:00,
2013-01-15 16:13:00,36.0,26.0,30.20,NW,323,0.0,2.0,66,0.00,,,0.00,,2013-01-15 21:13:00,
2013-01-15 16:23:00,36.0,26.0,30.20,West,264,0.0,2.0,66,0.00,,,0.00,,2013-01-15 21:23:00,
2013-01-15 16:33:00,36.0,26.0,30.20,West,264,0.0,0.0,66,0.00,,,0.00,,2013-01-15 21:33:00,
2013-01-15 16:43:00,36.0,26.0,30.20,West,264,0.0,0.0,66,0.00,,,0.00,,2013-01-15 21:43:00,
2013-01-15 16:53:00,36.0,26.0,30.21,West,264,0.0,1.0,67,0.00,,,0.00,,2013-01-15 21:53:00,
2013-01-15 17:03:00,35.0,26.0,30.22,West,264,0.0,1.0,68,0.00,,,0.00,,2013-01-15 22:03:00,
2013-01-15 17:12:00,35.0,26.0,30.22,West,264,0.0,1.0,68,0.00,,,0.00,,2013-01-15 22:12:00,
2013-01-15 17:23:00,35.0,26.0,30.21,West,264,0.0,1.0,69,0.00,,,0.00,,2013-01-15 22:23:00,
2013-01-15 17:33:00,34.0,25.0,30.22,West,264,0.0,0.0,70,0.00,,,0.00,,2013-01-15 22:33:00,
2013-01-15 17:43:00,34.0,25.0,30.22,West,264,0.0,0.0,70,0.00,,,0.00,,2013-01-15 22:43:00,
2013-01-15 17:53:00,34.0,26.0,30.21,West,264,0.0,0.0,72,0.00,,,0.00,,2013-01-15 22:53:00,
2013-01-15 18:02:00,33.0,25.0,30.21,West,264,0.0,0.0,73,0.00,,,0.00,,2013-01-15 23:02:00,
2013-01-15 18:13:00,33.0,25.0,30.21,West,264,0.0,0.0,73,0.00,,,0.00,,2013-01-15 23:13:00,
2013-01-15 18:23:00,33.0,26.0,30.22,West,264,0.0,0.0,74,0.00,,,0.00,,2013-01-15 23:23:00,
2013-01-15 18:33:00,32.0,25.0,30.22,West,264,0.0,0.0,75,0.00,,,0.00,,2013-01-15 23:33:00,
2013-01-15 18:43:00,32.0,25.0,30.22,West,264,0.0,0.0,75,0.00,,,0.00,,2013-01-15 23:43:00,
2013-01-15 18:53:00,32.0,26.0,30.22,West,264,0.0,0.0,77,0.00,,,0.00,,2013-01-15 23:53:00,
2013-01-15 19:03:00,31.0,25.0,30.22,West,264,0.0,0.0,77,0.00,,,0.00,,2013-01-16 00:03:00,
2013-01-15 19:13:00,31.0,25.0,30.22,West,264,0.0,0.0,77,0.00,,,0.00,,2013-01-16 00:13:00,
2013-01-15 19:22:00,31.0,25.0,30.22,West,264,0.0,0.0,77,0.00,,,0.00,,2013-01-16 00:22:00,
2013-01-15 19:33:00,31.0,25.0,30.22,NW,317,0.0,1.0,77,0.00,,,0.00,,2013-01-16 00:33:00,
2013-01-15 19:43:00,31.0,25.0,30.22,NW,317,0.0,1.0,77,0.00,,,0.00,,2013-01-16 00:43:00,
2013-01-15 19:53:00,31.0,25.0,30.22,NW,311,0.0,1.0,77,0.00,,,0.00,,2013-01-16 00:53:00,
2013-01-15 20:03:00,31.0,25.0,30.22,NW,311,0.0,1.0,77,0.00,,,0.00,,2013-01-16 01:03:00,
2013-01-15 20:12:00,31.0,25.0,30.22,NW,311,0.0,1.0,77,0.00,,,0.00,,2013-01-16 01:12:00,
2013-01-15 20:22:00,31.0,25.0,30.21,NW,311,0.0,1.0,77,0.00,,,0.00,,2013-01-16 01:22:00,
2013-01-15 20:33:00,31.0,25.0,30.22,NW,311,0.0,0.0,78,0.00,,,0.00,,2013-01-16 01:33:00,
2013-01-15 20:43:00,31.0,25.0,30.22,NW,311,0.0,0.0,78,0.00,,,0.00,,2013-01-16 01:43:00,
2013-01-15 20:53:00,31.0,25.0,30.20,NW,311,0.0,0.0,77,0.00,,,0.00,,2013-01-16 01:53:00,
2013-01-15 21:03:00,31.0,25.0,30.21,NW,311,0.0,0.0,77,0.00,,,0.00,,2013-01-16 02:03:00,
2013-01-15 21:12:00,31.0,25.0,30.21,NW,311,0.0,0.0,77,0.00,,,0.00,,2013-01-16 02:12:00,
2013-01-15 21:22:00,31.0,25.0,30.20,NW,322,0.0,3.0,77,0.00,,,0.00,,2013-01-16 02:22:00,
2013-01-15 21:33:00,31.0,25.0,30.21,NW,322,1.0,1.0,77,0.00,,,0.00,,2013-01-16 02:33:00,
2013-01-15 21:43:00,31.0,25.0,30.21,NW,322,1.0,1.0,77,0.00,,,0.00,,2013-01-16 02:43:00,
2013-01-15 21:53:00,31.0,24.0,30.21,NW,323,0.0,2.0,76,0.00,,,0.00,,2013-01-16 02:53:00,
2013-01-15 22:03:00,31.0,24.0,30.20,WNW,294,0.0,2.0,76,0.00,,,0.00,,2013-01-16 03:03:00,
2013-01-15 22:12:00,31.0,24.0,30.19,WNW,294,0.0,2.0,76,0.00,,,0.00,,2013-01-16 03:12:00,
2013-01-15 22:22:00,31.0,24.0,30.19,WNW,294,0.0,2.0,76,0.00,,,0.00,,2013-01-16 03:22:00,
2013-01-15 22:33:00,31.0,24.0,30.18,WNW,294,0.0,0.0,76,0.00,,,0.00,,2013-01-16 03:33:00,
2013-01-15 22:43:00,31.0,24.0,30.18,WNW,294,0.0,0.0,76,0.00,,,0.00,,2013-01-16 03:43:00,
2013-01-15 22:53:00,30.0,23.0,30.18,WNW,294,0.0,0.0,76,0.00,,,0.00,,2013-01-16 03:53:00,
2013-01-15 23:02:00,30.0,24.0,30.18,WNW,294,0.0,0.0,77,0.00,,,0.00,,2013-01-16 04:02:00,
2013-01-15 23:12:00,30.0,24.0,30.18,WNW,294,0.0,0.0,77,0.00,,,0.00,,2013-01-16 04:12:00,
2013-01-15 23:22:00,30.0,24.0,30.19,WNW,294,0.0,0.0,78,0.00,,,0.00,,2013-01-16 04:22:00,
2013-01-15 23:33:00,30.0,24.0,30.19,WNW,294,0.0,0.0,78,0.00,,,0.00,,2013-01-16 04:33:00,
2013-01-15 23:42:00,30.0,24.0,30.19,WNW,294,0.0,0.0,78,0.00,,,0.00,,2013-01-16 04:42:00,
2013-01-15 23:53:00,30.0,24.0,30.18,WNW,294,0.0,0.0,79,0.00,,,0.00,,2013-01-16 04:53:00,